Weather History for KHNB - March, 2014

Change the Weather History Date:

Wednesday, March 19, 2014

  Actual Average Record
Temperature  
Mean Temperature 48 °F -  
Max Temperature 55 °F 53 °F 82 °F (2012)
Min Temperature 39 °F 34 °F 28 °F (2013)
Degree Days  
Heating Degree Days 16    
Moisture  
Dew Point 40 °F    
Average Humidity 72    
Maximum Humidity 82    
Minimum Humidity 57    
Precipitation  
Precipitation 0.03 in - - ()
Sea Level Pressure  
Sea Level Pressure 29.90 in    
Wind  
Wind Speed 16 mph (WSW)    
Max Wind Speed 25 mph    
Max Gust Speed 33 mph    
Visibility 10 miles    
Events      
Averages and records for this station are not official NWS values.
T = Trace of Precipitation, MM = Missing Value Source: NWS Daily Summary

Daily Weather History Graph

Daily Weather History Graph

Search for Another Location

Airport or City:

Trip Planner

Search our weather history database for the weather conditions in past years. The results will help you decide how hot, cold, wet, or windy it might be!

Date:

Astronomy

Mar. 19, 2014 Rise Set
Actual Time 7:52 AM EDT 7:58 PM EDT
Civil Twilight 7:26 AM EDT 8:25 PM EDT
Nautical Twilight 6:55 AM EDT 8:55 PM EDT
Astronomical Twilight 6:24 AM EDT 9:27 PM EDT
Moon 11:13 PM EDT (3/19) 9:21 AM EDT (3/19)
Length of Visible Light 12h 58m
Length of Day
12h 05m
Waning Gibbous, 91% of the Moon is Illuminated
Mar 19
Waning Gibbous
Mar 23
Last Quarter
Mar 30
New
Apr 7
First Quarter
Apr 15
Full

Hourly Weather History & Observations

Time (EDT) Temp. Windchill Dew Point Humidity Pressure Visibility Wind Dir Wind Speed Gust Speed Precip Events Conditions
12:15 AM 44.6 °F 38.8 °F 39.2 °F 81% 29.84 in 10.0 mi SSW 11.5 mph - N/A   Clear
12:35 AM 46.4 °F 40.7 °F 41.0 °F 81% 29.84 in 10.0 mi SSW 12.7 mph - N/A   Clear
12:55 AM 46.4 °F 40.4 °F 41.0 °F 81% 29.84 in 10.0 mi SSW 13.8 mph 20.7 mph N/A   Mostly Cloudy
1:15 AM 48.2 °F - 41.0 °F 76% 29.84 in 10.0 mi SSW 23.0 mph 28.8 mph N/A   Overcast
1:35 AM 48.2 °F - 41.0 °F 76% 29.84 in 10.0 mi SSW 19.6 mph 29.9 mph N/A   Mostly Cloudy
1:55 AM 48.2 °F - 41.0 °F 76% 29.83 in 10.0 mi SSW 20.7 mph 27.6 mph N/A   Clear
2:15 AM 48.2 °F - 39.2 °F 71% 29.83 in 10.0 mi SSW 18.4 mph 25.3 mph N/A   Clear
2:35 AM 46.4 °F 39.8 °F 39.2 °F 76% 29.83 in 10.0 mi SSW 16.1 mph 23.0 mph N/A   Clear
2:55 AM 46.4 °F 39.2 °F 39.2 °F 76% 29.83 in 10.0 mi SSW 18.4 mph 24.2 mph N/A   Clear
3:15 AM 48.2 °F - 39.2 °F 71% 29.83 in 10.0 mi SSW 16.1 mph - N/A   Clear
3:35 AM 48.2 °F - 39.2 °F 71% 29.82 in 10.0 mi SSW 16.1 mph - N/A   Clear
3:55 AM 48.2 °F - 41.0 °F 76% 29.81 in 10.0 mi SSW 16.1 mph 23.0 mph N/A   Clear
4:15 AM 48.2 °F - 41.0 °F 76% 29.80 in 10.0 mi SSW 17.3 mph 23.0 mph N/A   Clear
4:35 AM 48.2 °F - 41.0 °F 76% 29.79 in 10.0 mi SSW 20.7 mph 31.1 mph N/A   Clear
4:55 AM 48.2 °F - 41.0 °F 76% 29.80 in 10.0 mi SSW 20.7 mph - N/A   Clear
5:15 AM 48.2 °F - 41.0 °F 76% 29.80 in 10.0 mi SSW 18.4 mph 25.3 mph N/A   Partly Cloudy
5:35 AM 48.2 °F - 41.0 °F 76% 29.80 in 10.0 mi SSW 19.6 mph 25.3 mph N/A   Clear
5:55 AM 48.2 °F - 42.8 °F 82% 29.80 in 10.0 mi SSW 17.3 mph 23.0 mph N/A   Partly Cloudy
6:15 AM 48.2 °F - 42.8 °F 82% 29.80 in 10.0 mi SSW 16.1 mph 21.9 mph N/A   Partly Cloudy
6:35 AM 48.2 °F - 42.8 °F 82% 29.79 in 7.0 mi SSW 12.7 mph - 0.03 in   Scattered Clouds
6:55 AM 48.2 °F - 42.8 °F 82% 29.78 in 10.0 mi South 15.0 mph 23.0 mph 0.03 in   Scattered Clouds
7:15 AM 48.2 °F - 42.8 °F 82% 29.76 in 10.0 mi South 13.8 mph 21.9 mph N/A   Partly Cloudy
7:35 AM 48.2 °F - 42.8 °F 82% 29.77 in 10.0 mi SSW 20.7 mph 24.2 mph N/A   Partly Cloudy
7:55 AM 48.2 °F - 42.8 °F 82% 29.77 in 10.0 mi SSW 16.1 mph 23.0 mph N/A   Scattered Clouds
8:15 AM 48.2 °F - 42.8 °F 82% 29.78 in 10.0 mi SSW 15.0 mph 23.0 mph N/A   Mostly Cloudy
8:35 AM 48.2 °F - 42.8 °F 82% 29.79 in 10.0 mi SSW 17.3 mph 21.9 mph N/A   Overcast
8:55 AM 50.0 °F - 44.6 °F 82% 29.79 in 10.0 mi SSW 17.3 mph 28.8 mph N/A   Overcast
9:15 AM 50.0 °F - 44.6 °F 82% 29.79 in 10.0 mi SSW 17.3 mph 26.5 mph N/A   Overcast
9:35 AM 50.0 °F - 44.6 °F 82% 29.78 in 10.0 mi SSW 18.4 mph 28.8 mph N/A   Overcast
9:55 AM 50.0 °F - 44.6 °F 82% 29.79 in 10.0 mi SSW 17.3 mph - N/A   Overcast
10:15 AM 50.0 °F - 44.6 °F 82% 29.79 in 10.0 mi SW 17.3 mph 23.0 mph N/A   Overcast
10:35 AM 50.0 °F - 44.6 °F 82% 29.80 in 10.0 mi SW 15.0 mph 21.9 mph N/A   Overcast
10:55 AM 50.0 °F - 44.6 °F 82% 29.81 in 10.0 mi SW 13.8 mph 19.6 mph N/A   Overcast
11:15 AM 50.0 °F - 44.6 °F 82% 29.81 in 10.0 mi SW 17.3 mph - N/A   Overcast
11:35 AM 51.8 °F - 44.6 °F 76% 29.82 in 10.0 mi SW 17.3 mph 23.0 mph N/A   Overcast
11:55 AM 51.8 °F - 44.6 °F 76% 29.83 in 10.0 mi WSW 17.3 mph 21.9 mph N/A   Overcast
12:15 PM 53.6 °F - 46.4 °F 77% 29.84 in 10.0 mi WSW 18.4 mph 25.3 mph N/A   Overcast
12:35 PM 55.4 °F - 46.4 °F 72% 29.84 in 10.0 mi WSW 17.3 mph 21.9 mph N/A   Partly Cloudy
12:55 PM 55.4 °F - 44.6 °F 67% 29.84 in 10.0 mi WSW 16.1 mph 23.0 mph N/A   Mostly Cloudy
1:15 PM 53.6 °F - 44.6 °F 72% 29.85 in 10.0 mi West 21.9 mph 29.9 mph N/A   Overcast
1:35 PM 53.6 °F - 44.6 °F 72% 29.87 in 10.0 mi West 25.3 mph 29.9 mph N/A   Overcast
1:55 PM 53.6 °F - 42.8 °F 67% 29.88 in 10.0 mi WNW 21.9 mph 33.4 mph N/A   Overcast
2:15 PM 51.8 °F - 41.0 °F 67% 29.90 in 10.0 mi West 21.9 mph 27.6 mph N/A   Overcast
2:35 PM 51.8 °F - 41.0 °F 67% 29.90 in 10.0 mi West 23.0 mph 28.8 mph N/A   Overcast
2:55 PM 51.8 °F - 41.0 °F 67% 29.91 in 10.0 mi West 18.4 mph 23.0 mph N/A   Overcast
3:15 PM 51.8 °F - 41.0 °F 67% 29.92 in 10.0 mi WNW 15.0 mph 26.5 mph N/A   Mostly Cloudy
3:35 PM 50.0 °F - 39.2 °F 66% 29.92 in 10.0 mi West 15.0 mph 24.2 mph N/A   Mostly Cloudy
3:55 PM 50.0 °F - 39.2 °F 66% 29.93 in 10.0 mi WNW 16.1 mph - N/A   Mostly Cloudy
4:15 PM 51.8 °F - 39.2 °F 62% 29.93 in 10.0 mi West 16.1 mph - N/A   Overcast
4:35 PM 51.8 °F - 39.2 °F 62% 29.94 in 10.0 mi West 15.0 mph - N/A   Overcast
4:55 PM 51.8 °F - 39.2 °F 62% 29.94 in 10.0 mi WNW 16.1 mph 19.6 mph N/A   Overcast
5:15 PM 51.8 °F - 37.4 °F 58% 29.95 in 10.0 mi WNW 17.3 mph 28.8 mph N/A   Overcast
5:35 PM 51.8 °F - 37.4 °F 58% 29.97 in 10.0 mi WNW 20.7 mph 28.8 mph N/A   Overcast
5:55 PM 51.8 °F - 37.4 °F 58% 29.98 in 10.0 mi NW 19.6 mph - N/A   Overcast
6:15 PM 50.0 °F - 37.4 °F 62% 29.99 in 10.0 mi WNW 17.3 mph 24.2 mph N/A   Overcast
6:35 PM 50.0 °F - 37.4 °F 62% 30.00 in 10.0 mi NW 19.6 mph 24.2 mph N/A   Overcast
6:55 PM 48.2 °F - 35.6 °F 62% 30.01 in 10.0 mi NW 17.3 mph 25.3 mph N/A   Overcast
7:15 PM 48.2 °F - 35.6 °F 62% 30.02 in 10.0 mi NW 21.9 mph 25.3 mph N/A   Overcast
7:35 PM 46.4 °F 39.8 °F 35.6 °F 66% 30.04 in 10.0 mi NW 16.1 mph - N/A   Overcast
7:55 PM 46.4 °F 40.4 °F 35.6 °F 66% 30.04 in 10.0 mi WNW 13.8 mph 20.7 mph N/A   Mostly Cloudy
8:15 PM 46.4 °F 41.5 °F 33.8 °F 62% 30.05 in 10.0 mi WNW 10.4 mph - N/A   Mostly Cloudy
8:35 PM 46.4 °F 40.1 °F 33.8 °F 62% 30.05 in 10.0 mi NW 15.0 mph - N/A   Overcast
8:55 PM 44.6 °F 38.1 °F 33.8 °F 66% 30.06 in 10.0 mi NW 13.8 mph - N/A   Mostly Cloudy
9:15 PM 44.6 °F 38.1 °F 32.0 °F 61% 30.07 in 10.0 mi NW 13.8 mph 21.9 mph N/A   Mostly Cloudy
9:35 PM 44.6 °F 39.2 °F 32.0 °F 61% 30.08 in 10.0 mi NW 10.4 mph - N/A   Mostly Cloudy
9:55 PM 44.6 °F 38.4 °F 33.8 °F 66% 30.09 in 10.0 mi WNW 12.7 mph - N/A   Mostly Cloudy
10:15 PM 44.6 °F 37.4 °F 32.0 °F 61% 30.10 in 10.0 mi NW 16.1 mph - N/A   Mostly Cloudy
10:35 PM 42.8 °F 35.8 °F 30.2 °F 61% 30.10 in 10.0 mi NW 13.8 mph - N/A   Mostly Cloudy
10:55 PM 42.8 °F 36.2 °F 30.2 °F 61% 30.11 in 10.0 mi NW 12.7 mph - N/A   Overcast
11:15 PM 42.8 °F 35.4 °F 30.2 °F 61% 30.12 in 10.0 mi NNW 15.0 mph 20.7 mph N/A   Overcast
11:35 PM 42.8 °F 36.6 °F 28.4 °F 57% 30.13 in 10.0 mi NW 11.5 mph 21.9 mph N/A   Scattered Clouds
11:55 PM 39.2 °F 32.5 °F 28.4 °F 65% 30.14 in 10.0 mi NNW 10.4 mph - N/A   Clear